| time (UTC) | temp F | wind direction | speed MPH | gust MPH | rain 1hr in | rain 24hr in | rain mn in | humidity % | barometer mb |
| 20260502220405 | 54 | 319 | 0.0 | 0.0 | 0.05 | 0.08 | 0.08 | 3 | 1007.7 |
| 20260502214904 | 54 | 319 | 0.0 | 0.0 | 0.05 | 0.06 | 0.06 | 3 | 1008.0 |
| 20260502213404 | 54 | 319 | 0.0 | 0.0 | 0.04 | 0.05 | 0.05 | 3 | 1008.1 |
| 20260502211904 | 54 | 319 | 0.0 | 0.0 | 0.05 | 0.05 | 0.05 | 3 | 1008.1 |
| 20260502211403 | 54 | 319 | 0.0 | 0.0 | 0.04 | 0.04 | 0.04 | 3 | 1008.2 |
| 20260502210403 | 54 | 318 | 0.0 | 0.0 | 0.03 | 0.03 | 0.03 | 3 | 1008.4 |
| 20260502204403 | 54 | 319 | 0.0 | 0.0 | 0.02 | 0.02 | 0.02 | 3 | 1008.6 |
| 20260502203903 | 54 | 319 | 0.0 | 0.0 | 0.02 | 0.02 | 0.02 | 3 | 1008.6 |
| 20260502203403 | 54 | 319 | 0.0 | 0.0 | 0.01 | 0.01 | 0.01 | 3 | 1008.6 |
| 20260502201904 | 55 | 319 | 0.0 | 0.0 | 0.00 | 0.00 | 0.00 | 3 | 1008.6 |
| 20260502201403 | 55 | 319 | 0.0 | 0.0 | 0.00 | 0.00 | 0.00 | 3 | 1008.6 |
| 20260502200903 | 55 | 319 | 0.0 | 0.0 | 0.00 | 0.00 | 0.00 | 3 | 1008.6 |
| 20260502194404 | 57 | 319 | 0.0 | 0.0 | 0.00 | 0.00 | 0.00 | 3 | 1008.6 |
| 20260502193904 | 57 | 319 | 0.0 | 0.0 | 0.00 | 0.00 | 0.00 | 3 | 1008.6 |
| 20260502181404 | 59 | 319 | 0.0 | 0.0 | 0.00 | 0.00 | 0.00 | 3 | 1008.6 |
| 20260502180904 | 59 | 319 | 0.0 | 0.0 | 0.00 | 0.00 | 0.00 | 3 | 1008.6 |
| 20260502163404 | 61 | 341 | 1.0 | 7.0 | 0.00 | 0.02 | 0.00 | 36 | 1009.0 |
| 20260502160905 | 61 | 346 | 1.0 | 3.0 | 0.00 | 0.02 | 0.00 | 42 | 1009.3 |
| 20260502160405 | 61 | 337 | 0.0 | 3.0 | 0.00 | 0.02 | 0.00 | 43 | 1009.4 |
| 20260502151904 | 61 | 58 | 0.0 | 3.0 | 0.00 | 0.02 | 0.00 | 45 | 1009.8 |
| 20260502150905 | 61 | 58 | 0.0 | 2.0 | 0.00 | 0.02 | 0.00 | 42 | 1009.8 |
| 20260502150405 | 61 | 31 | 1.0 | 6.0 | 0.00 | 0.02 | 0.00 | 44 | 1009.8 |
| 20260502130403 | 59 | 24 | 1.0 | 6.0 | 0.00 | 0.02 | 0.00 | 41 | 1011.1 |
| 20260502123405 | 59 | 57 | 1.0 | 6.0 | 0.00 | 0.02 | 0.00 | 39 | 1011.7 |
| 20260502121403 | 57 | 24 | 2.0 | 7.0 | 0.00 | 0.02 | 0.00 | 32 | 1012.0 |
| 20260502120905 | 57 | 51 | 2.0 | 5.0 | 0.00 | 0.02 | 0.00 | 27 | 1012.0 |
| 20260502120405 | 57 | 121 | 1.0 | 7.0 | 0.00 | 0.02 | 0.00 | 28 | 1012.0 |
| 20260502114403 | 57 | 108 | 0.0 | 3.0 | 0.00 | 0.02 | 0.00 | 20 | 1012.4 |
| 20260502113904 | 57 | 76 | 2.0 | 7.0 | 0.00 | 0.02 | 0.00 | 13 | 1012.4 |
| 20260502111903 | 57 | 45 | 2.0 | 3.0 | 0.00 | 0.02 | 0.00 | 3 | 1012.7 |
| 20260502110904 | 57 | 80 | 0.0 | 3.0 | 0.00 | 0.02 | 0.00 | 3 | 1012.7 |
| 20260502104904 | 55 | 17 | 0.0 | 2.0 | 0.00 | 0.02 | 0.00 | 3 | 1012.6 |
| 20260502104404 | 55 | 136 | 0.0 | 1.0 | 0.00 | 0.02 | 0.00 | 3 | 1012.7 |
| 20260502103904 | 55 | 138 | 0.0 | 3.0 | 0.00 | 0.02 | 0.00 | 3 | 1012.7 |
| 20260502103403 | 55 | 66 | 2.0 | 3.0 | 0.00 | 0.02 | 0.00 | 3 | 1012.6 |
| 20260502101404 | 54 | 76 | 1.0 | 5.0 | 0.00 | 0.02 | 0.00 | 3 | 1013.1 |
| 20260502100904 | 54 | 79 | 1.0 | 6.0 | 0.00 | 0.02 | 0.00 | 3 | 1013.1 |
| 20260502100404 | 54 | 138 | 1.0 | 5.0 | 0.00 | 0.02 | 0.00 | 3 | 1013.1 |
| 20260502091403 | 54 | 42 | 1.0 | 5.0 | 0.00 | 0.02 | 0.00 | 3 | 1013.3 |
| 20260502090905 | 54 | 82 | 1.0 | 3.0 | 0.00 | 0.02 | 0.00 | 3 | 1013.3 |
| 20260502064904 | 46 | 314 | 0.0 | 0.0 | 0.00 | 0.02 | 0.00 | 3 | 1013.3 |
| 20260502063904 | 46 | 313 | 0.0 | 0.0 | 0.00 | 0.02 | 0.00 | 3 | 1013.4 |
| 20260502063404 | 46 | 313 | 0.0 | 0.0 | 0.00 | 0.02 | 0.00 | 3 | 1013.4 |
| 20260502053904 | 43 | 313 | 0.0 | 0.0 | 0.00 | 0.02 | 0.00 | 3 | 1013.3 |
| 20260502053405 | 43 | 313 | 0.0 | 0.0 | 0.00 | 0.02 | 0.00 | 3 | 1013.3 |
| 20260502051404 | 45 | 313 | 0.0 | 0.0 | 0.00 | 0.02 | 0.00 | 3 | 1013.3 |
| 20260502044904 | 45 | 313 | 0.0 | 0.0 | 0.00 | 0.02 | 0.00 | 3 | 1013.3 |
| 20260502043905 | 45 | 313 | 0.0 | 0.0 | 0.00 | 0.02 | 0.00 | 3 | 1013.3 |
| 20260502043404 | 45 | 313 | 0.0 | 0.0 | 0.00 | 0.02 | 0.00 | 3 | 1013.3 |
| 20260502041404 | 45 | 313 | 0.0 | 0.0 | 0.00 | 0.02 | 0.00 | 3 | 1013.3 |
| 20260502040903 | 45 | 313 | 0.0 | 0.0 | 0.00 | 0.02 | 0.00 | 3 | 1013.4 |
| 20260502034404 | 45 | 313 | 0.0 | 0.0 | 0.00 | 0.02 | 0.00 | 3 | 1013.4 |
| 20260502031403 | 45 | 313 | 0.0 | 0.0 | 0.00 | 0.02 | 0.00 | 3 | 1013.6 |
| 20260502030403 | 45 | 313 | 0.0 | 0.0 | 0.00 | 0.02 | 0.00 | 3 | 1013.6 |
| 20260502024904 | 45 | 313 | 0.0 | 0.0 | 0.00 | 0.02 | 0.00 | 3 | 1013.6 |
| 20260502024403 | 45 | 313 | 0.0 | 0.0 | 0.00 | 0.02 | 0.00 | 3 | 1013.6 |
| 20260502023905 | 45 | 313 | 0.0 | 0.0 | 0.00 | 0.02 | 0.00 | 3 | 1013.7 |
| 20260502020904 | 46 | 313 | 0.0 | 0.0 | 0.00 | 0.02 | 0.00 | 3 | 1013.8 |
| 20260502014904 | 46 | 313 | 0.0 | 0.0 | 0.00 | 0.02 | 0.00 | 3 | 1014.0 |
| 20260502011405 | 46 | 313 | 0.0 | 0.0 | 0.00 | 0.02 | 0.00 | 3 | 1014.4 |
| 20260502003904 | 48 | 313 | 0.0 | 0.0 | 0.00 | 0.02 | 0.00 | 3 | 1014.7 |
| 20260501234903 | 52 | 313 | 0.0 | 0.0 | 0.00 | 0.02 | 0.00 | 3 | 1014.9 |
| 20260501233904 | 52 | 313 | 0.0 | 0.0 | 0.00 | 0.02 | 0.00 | 3 | 1015.0 |
| 20260501233404 | 52 | 313 | 0.0 | 0.0 | 0.00 | 0.02 | 0.00 | 3 | 1014.9 |
| 20260501231904 | 50 | 313 | 0.0 | 0.0 | 0.00 | 0.02 | 0.00 | 3 | 1014.9 |
| 20260501230403 | 50 | 313 | 0.0 | 0.0 | 0.00 | 0.02 | 0.00 | 3 | 1015.0 |
| 20260501224903 | 50 | 313 | 0.0 | 0.0 | 0.00 | 0.02 | 0.02 | 3 | 1015.0 |
| 20260501223903 | 50 | 313 | 0.0 | 0.0 | 0.00 | 0.02 | 0.02 | 3 | 1014.9 |